Weather History for Calama / El Loa, Chile

Change the Weather History Date:

Sunday, February 2, 2014

  Actual Average Record
Temperature  
Mean Temperature 59 °F -  
Max Temperature 77 °F - - ()
Min Temperature 41 °F - - ()
Degree Days  
Heating Degree Days 6    
Growing Degree Days 9 (Base 50)    
Moisture  
Dew Point 29 °F    
Average Humidity 29    
Maximum Humidity 57    
Minimum Humidity 7    
Precipitation  
Precipitation 0.00 in - - ()
Sea Level Pressure  
Sea Level Pressure 30.22 in    
Wind  
Wind Speed 11 mph ()    
Max Wind Speed 26 mph    
Max Gust Speed 31 mph    
Visibility 9.8 miles    
Events      
T = Trace of Precipitation, MM = Missing Value Source: Averaged Metar Reports

Daily Weather History Graph

Daily Weather History Graph

Search for Another Location

Airport:

Trip Planner

Search our weather history database for the weather conditions in past years. The results will help you decide how hot, cold, wet, or windy it might be!

Date:

Astronomy

Feb. 02, 2014 Rise Set
Actual Time 7:16 AM CLST 8:21 PM CLST
Civil Twilight 6:53 AM CLST 8:45 PM CLST
Nautical Twilight 6:24 AM CLST 9:13 PM CLST
Astronomical Twilight 5:56 AM CLST 9:42 PM CLST
Moon 10:04 AM CLST (2/2) 10:26 PM CLST (2/2)
Length of Visible Light 13h 52m
Length of Day
13h 04m
Waxing Crescent, 11% of the Moon is Illuminated
Feb 2
Waxing Crescent
Feb 6
First Quarter
Feb 14
Full
Feb 22
Last Quarter
Mar 1
New

Hourly Weather History & Observations

Time (CLST) Temp. Windchill Dew Point Humidity Pressure Visibility Wind Dir Wind Speed Gust Speed Precip Events Conditions
12:00 AM 56 °F - 26 °F 20%  in 12 mi SW 3.5 mph - -  
12:00 AM 57.2 °F - 26.6 °F 31% 30.27 in - SW 3.5 mph - N/A   Clear
1:00 AM 53.6 °F - 26.6 °F 35% 30.27 in - South 5.8 mph - N/A   Clear
2:00 AM 46.4 °F 43.5 °F 26.6 °F 46% 30.27 in - East 5.8 mph - N/A   Clear
3:00 AM 45 °F - 26 °F 35%  in 12 mi East 10.4 mph - -  
3:00 AM 44.6 °F 39.2 °F 26.6 °F 49% 30.27 in - East 10.4 mph - N/A   Clear
4:00 AM 44.6 °F 38.8 °F 28.4 °F 53% 30.24 in - East 11.5 mph - N/A   Clear
5:00 AM 44.6 °F 37.8 °F 26.6 °F 49% 30.24 in - East 15.0 mph - N/A   Clear
6:00 AM 44 °F - 26 °F 37%  in 12 mi East 11.5 mph - -  
6:00 AM 44.6 °F 38.8 °F 26.6 °F 49% 30.24 in - East 11.5 mph - N/A   Clear
7:00 AM 42.8 °F 35.1 °F 28.4 °F 57% 30.24 in - East 16.1 mph - N/A   Clear
8:00 AM 44.6 °F 37.4 °F 28.4 °F 53% 30.27 in - East 16.1 mph - N/A   Clear
9:00 AM 57 °F - 30 °F 23%  in 12 mi ESE 13.8 mph - -  
9:00 AM 57.2 °F - 30.2 °F 36% 30.27 in - ESE 13.8 mph - N/A   Clear
10:00 AM 62.6 °F - 30.2 °F 30% 30.27 in - East 13.8 mph - N/A   Clear
11:00 AM 68.0 °F - 30.2 °F 24% 30.24 in - East 6.9 mph - N/A   Clear
12:00 PM 72 °F - 32 °F 13%  in 12 mi East 3.5 mph - -  
12:00 PM 71.6 °F - 32.0 °F 23% 30.24 in - East 3.5 mph - N/A   Clear
1:00 PM 73.4 °F - 30.2 °F 20% 30.21 in - SW 10.4 mph - N/A   Clear
2:00 PM 73.4 °F - 30.2 °F 20% 30.21 in 6.2 mi West 19.6 mph 31.1 mph N/A   Partly Cloudy
3:00 PM 74 °F - 29 °F 10%  in 12 mi West 23.0 mph - -   Scattered Clouds
3:00 PM 75.2 °F - 28.4 °F 18% 30.18 in 6.2 mi West 23.0 mph - N/A   Partly Cloudy
4:00 PM 75.2 °F - 28.4 °F 18% 30.18 in 6.2 mi West 21.9 mph - N/A   Partly Cloudy
5:00 PM 77.0 °F - 28.4 °F 17% 30.18 in 6.2 mi West 21.9 mph - N/A   Partly Cloudy
6:00 PM 76 °F - 25 °F 7%  in 12 mi West 21.9 mph - -   Scattered Clouds
6:00 PM 77.0 °F - 24.8 °F 14% 30.15 in 6.2 mi West 21.9 mph - N/A   Partly Cloudy
7:00 PM 75.2 °F - 24.8 °F 15% 30.15 in - West 24.2 mph - N/A   Clear
8:00 PM 71.6 °F - 32.0 °F 23% 30.15 in - WSW 26.5 mph - N/A   Clear
9:00 PM 67 °F - 31 °F 15%  in 12 mi West 20.7 mph - -  
9:00 PM 68.0 °F - 30.2 °F 24% 30.18 in - West 20.7 mph - N/A   Clear
10:00 PM 62.6 °F - 32.0 °F 32% 30.21 in - West 13.8 mph - N/A   Clear
11:00 PM 59.0 °F - 32.0 °F 36% 30.24 in - West 6.9 mph - N/A   Clear